{"data":{"norad_id":55761,"intl_designator":"2023-028W","name":"STARLINK-5611","alt_names":[],"object_type":"PAYLOAD","status":"ACTIVE","operator":null,"country":"US","launch_date":"2023-03-03","launch_site_code":"AFWTR","launch_vehicle":null,"mission":null,"orbit_class":"UNKNOWN","rcs_meters":null,"size_class":null,"mass_kg":null,"dimensions":null,"purposes":["comms"],"wikipedia_slug":null,"has_3d_model":false,"image_url":null,"decayed_at":null,"tle_current":{"epoch":"2026-09-20T22:19:04.333728Z","epoch_age_seconds":66007,"freshness":"FRESH","line1":"1 55761U 23028W   26263.92991127 -.00000207  00000+0 -95933-5 0  9992","line2":"2 55761  69.9985  92.3735 0002625 269.8093  90.2765 14.98332946195770","mean_motion":14.98332946,"eccentricity":0.0002625,"inclination_deg":69.9985,"raan_deg":92.3735,"arg_perigee_deg":269.8093,"mean_anomaly_deg":90.2765,"bstar":-9.5933e-6,"rev_number":19577,"period_min":96.106810161538,"perigee_km":570.22235745493,"apogee_km":573.87120393979,"semimajor_km":6950.1837806974,"source":"CELESTRAK","updated_at":"2026-09-21T09:00:33.315220Z"}}}